DW8366 Lake Hamana JP current weather conditions

sailwx.info

Wind from 270

Air temperature 13.3° C
Dewpoint 0.7° C

Last reported at 2019-Mar-25 09:10 UTC.
Time now 2019-Mar-25 09:32 UTC

Location: N 34°43' E 137°32'.
View on Google Maps.

See reports from other nearby stations

  
Tides and Currents Weather Stations Pressure Air Temp Water Temp Dewpoint Dewpoint Depression Visibility Wind Speed Wind Dir Waves Ship Positions
date/time (UTC)wind fromknots sea level pressurealtimeterstation pressurevisibilityair tempwater tempwave heightnotes
2019-Mar-25 09:10 270 13.3
2019-Mar-25 08:55 270 13.3
2019-Mar-25 08:45 272 13.3
2019-Mar-25 08:35 048 13.3
2019-Mar-25 08:20 059 0 gusting 2 13.9
2019-Mar-25 08:15 059 0 gusting 2 13.9
2019-Mar-25 08:10 025 1 gusting 2 13.9
2019-Mar-25 07:55 192 13.9
2019-Mar-25 07:45 233 13.9
2019-Mar-25 07:40 248 13.9
2019-Mar-25 07:15 251 13.9
2019-Mar-25 07:00 250 1 gusting 3 13.9
2019-Mar-25 06:50 270 1 gusting 6 13.9
2019-Mar-25 06:45 256 1 gusting 6 13.9
2019-Mar-25 06:40 239 2 gusting 6 13.9
2019-Mar-25 06:30 253 2 gusting 6 14.4
2019-Mar-25 06:20 261 1 gusting 4 14.4
2019-Mar-25 06:15 253 2 gusting 6 15.0
2019-Mar-25 06:10 245 1 gusting 6 15.0
2019-Mar-25 06:05 247 0 gusting 6 15.0
2019-Mar-25 06:00 246 3 gusting 4 15.0
2019-Mar-25 05:45 245 3 gusting 4 15.6
2019-Mar-25 05:40 254 1 gusting 3 15.6
2019-Mar-25 05:20 270 3 gusting 8 15.6
2019-Mar-25 05:15 263 3 gusting 8 16.1
2019-Mar-25 05:00 252 1 gusting 6 16.7
2019-Mar-25 04:55 282 1 gusting 6 16.7
2019-Mar-25 04:50 259 3 gusting 6 17.2
2019-Mar-25 04:45 246 2 gusting 6 17.2
2019-Mar-25 04:40 247 1 gusting 6 17.8
2019-Mar-25 04:35 234 3 gusting 6 18.3
2019-Mar-25 04:05 258 0 gusting 4 20.6
2019-Mar-25 04:00 273 1 gusting 6 20.6
2019-Mar-25 03:55 313 1 gusting 6 20.6
2019-Mar-25 03:50 312 2 gusting 6 20.0
2019-Mar-25 03:30 289 2 gusting 6 21.1
2019-Mar-25 03:25 310 1 gusting 6 21.1
2019-Mar-25 03:20 288 1 gusting 6 20.6
2019-Mar-25 03:10 300 1 gusting 11 20.0
2019-Mar-25 03:05 288 1 gusting 11 20.6
2019-Mar-25 03:00 270 3 gusting 6 21.7
2019-Mar-25 02:40 286 3 gusting 6 21.1
2019-Mar-25 02:35 284 1 gusting 6 20.6
2019-Mar-25 02:15 063 2 gusting 8 21.7
2019-Mar-25 02:05 355 1 gusting 7 21.7
2019-Mar-25 01:55 030 2 gusting 3 20.6
2019-Mar-25 01:50 061 1 gusting 3 20.6
2019-Mar-25 01:45 137 1 gusting 3 19.4
2019-Mar-25 01:30 253 1 gusting 7 17.8
2019-Mar-25 01:25 247 4 gusting 7 17.8
2019-Mar-25 01:15 276 2 gusting 7 17.2
2019-Mar-25 01:05 268 1 gusting 6 17.8
2019-Mar-25 01:00 279 1 gusting 6 17.2
2019-Mar-25 00:55 278 3 gusting 6 16.7
2019-Mar-25 00:50 335 3 gusting 4 16.7
2019-Mar-25 00:45 277 1 gusting 6 16.1
2019-Mar-25 00:40 253 1 gusting 7 16.1
2019-Mar-25 00:30 241 1 gusting 6 16.1
2019-Mar-25 00:25 181 1 gusting 3 16.1
2019-Mar-25 00:15 319 0 gusting 5 15.6
2019-Mar-25 00:05 252 0 gusting 3 15.6
2019-Mar-25 00:00 066 0 gusting 4 15.6
2019-Mar-24 23:50 272 1 gusting 3 14.4
2019-Mar-24 23:35 269 0 gusting 3 13.3
2019-Mar-24 23:30 010 1 gusting 3 13.3
2019-Mar-24 23:20 210 12.2
2019-Mar-24 23:15 207 0 gusting 1 11.7
2019-Mar-24 23:05 239 10.6
2019-Mar-24 22:55 275 0 gusting 1 9.4
2019-Mar-24 22:50 261 0 gusting 2 8.9
2019-Mar-24 22:45 247 8.3
2019-Mar-24 22:40 240 0 gusting 2 7.8
2019-Mar-24 22:35 257 7.2
2019-Mar-24 22:25 247 0 gusting 1 6.7
2019-Mar-24 22:10 264 5.6
2019-Mar-24 22:05 266 0 gusting 2 5.0
2019-Mar-24 21:55 259 3.9
2019-Mar-24 21:30 267 0 gusting 1 2.8
2019-Mar-24 21:20 270 2.2
2019-Mar-24 21:15 270 2.2
2019-Mar-24 21:10 270 0 gusting 1 2.2
2019-Mar-24 21:05 269 0 gusting 1 2.2
2019-Mar-24 21:00 269 0 gusting 1 2.2
2019-Mar-24 20:55 270 0 gusting 1 2.2
2019-Mar-24 20:50 258 0 gusting 1 2.8
2019-Mar-24 20:40 236 2.8
2019-Mar-24 20:35 249 2.8
2019-Mar-24 20:30 237 0 gusting 1 2.8
2019-Mar-24 20:25 243 2.8
2019-Mar-24 20:20 259 0 gusting 1 2.8
2019-Mar-24 20:15 254 0 gusting 1 2.8
2019-Mar-24 19:55 268 0 gusting 1 2.8
2019-Mar-24 19:50 260 0 gusting 1 2.8
2019-Mar-24 19:45 258 0 gusting 1 2.8
2019-Mar-24 19:35 265 0 gusting 1 2.8
2019-Mar-24 19:25 270 0 gusting 1 2.8
2019-Mar-24 19:20 268 0 gusting 1 3.3
2019-Mar-24 19:15 255 0 gusting 1 3.3
2019-Mar-24 19:10 259 3.3
2019-Mar-24 19:05 256 0 gusting 1 3.3
2019-Mar-24 18:55 248 3.9
2019-Mar-24 18:50 267 3.9
2019-Mar-24 18:45 263 0 gusting 1 3.9
2019-Mar-24 18:30 261 0 gusting 2 3.9
2019-Mar-24 18:25 267 1 gusting 2 4.4
2019-Mar-24 18:15 242 0 gusting 3 4.4
2019-Mar-24 18:10 248 0 gusting 3 4.4
2019-Mar-24 17:55 262 1 gusting 4 4.4
2019-Mar-24 17:45 264 1 gusting 4 3.9
2019-Mar-24 17:40 246 1 gusting 3 3.9
2019-Mar-24 17:35 261 1 gusting 3 3.9
2019-Mar-24 17:20 242 0 gusting 1 3.3
2019-Mar-24 17:05 256 0 gusting 1 3.3
2019-Mar-24 17:00 252 0 gusting 1 2.8
2019-Mar-24 16:50 267 0 gusting 1 2.8
2019-Mar-24 16:40 270 3.3
2019-Mar-24 16:35 265 3.3
2019-Mar-24 16:30 265 0 gusting 1 3.3
2019-Mar-24 16:25 313 3.3
2019-Mar-24 16:15 262 3.9
2019-Mar-24 16:10 270 3.9
2019-Mar-24 15:40 229 4.4
2019-Mar-24 15:35 242 4.4
2019-Mar-24 15:10 254 0 gusting 1 5.0
2019-Mar-24 15:00 239 5.0
2019-Mar-24 14:50 261 5.0
2019-Mar-24 14:25 153 5.6
2019-Mar-24 14:15 087 6.1
2019-Mar-24 14:05 6.1
2019-Mar-24 13:45 217 0 gusting 1 6.7
2019-Mar-24 13:30 354 6.7
2019-Mar-24 13:25 069 6.7
2019-Mar-24 13:10 228 7.2
2019-Mar-24 12:55 215 7.2
2019-Mar-24 12:40 148 7.8
2019-Mar-24 12:35 148 7.8
2019-Mar-24 12:25 156 0 gusting 3 7.8
2019-Mar-24 12:20 155 1 gusting 4 7.8
2019-Mar-24 12:10 097 1 gusting 4 7.8
2019-Mar-24 12:05 145 0 gusting 3 7.8
2019-Mar-24 12:00 196 0 gusting 2 7.8
2019-Mar-24 11:55 238 7.8
2019-Mar-24 11:50 336 1 gusting 2 8.3
2019-Mar-24 11:40 251 1 gusting 3 8.3
2019-Mar-24 11:35 240 1 gusting 4 8.3
2019-Mar-24 11:25 261 1 gusting 6 8.3
2019-Mar-24 11:20 261 0 gusting 6 8.3
2019-Mar-24 11:10 313 1 gusting 4 8.3
2019-Mar-24 11:05 205 1 gusting 4 8.9
2019-Mar-24 10:55 248 1 gusting 3 8.9
2019-Mar-24 10:45 350 1 gusting 5 8.9
2019-Mar-24 10:40 223 1 gusting 6 8.9
2019-Mar-24 10:35 217 2 gusting 6 8.9
2019-Mar-24 10:30 238 1 gusting 6 9.4
2019-Mar-24 10:25 232 2 gusting 6 9.4
2019-Mar-24 10:15 244 2 gusting 5 9.4
2019-Mar-24 10:10 255 1 gusting 5 9.4
2019-Mar-24 10:05 241 1 gusting 5 9.4
2019-Mar-24 10:00 259 2 gusting 9 9.4
2019-Mar-24 09:55 241 2 gusting 9 9.4
2019-Mar-24 09:50 220 0 gusting 8 10.0
2019-Mar-24 09:45 269 1 gusting 8 10.0
2019-Mar-24 09:35 265 2 gusting 7 10.0
2019-Mar-24 09:25 340 1 gusting 6 10.6
2019-Mar-24 08:45 291 4 gusting 7 13.9
2019-Mar-24 08:40 285 3 gusting 6 15.0
2019-Mar-24 08:15 270 5 gusting 9 16.7
2019-Mar-24 08:10 276 3 gusting 9 17.2
2019-Mar-24 08:05 270 3 gusting 6 17.8
2019-Mar-24 08:00 267 2 gusting 11 18.3
2019-Mar-24 07:50 246 6 gusting 13 18.3
2019-Mar-24 07:45 250 2 gusting 13 18.3
2019-Mar-24 07:35 275 2 gusting 11 18.9
2019-Mar-24 07:30 269 4 gusting 10 20.0
2019-Mar-24 07:20 188 0 gusting 4 21.7
2019-Mar-24 07:15 334 1 gusting 9 21.1
2019-Mar-24 06:55 253 2 gusting 9 21.1
2019-Mar-24 06:40 237 1 gusting 9 20.0
2019-Mar-24 06:35 270 3 gusting 10 20.0
2019-Mar-24 06:30 265 3 gusting 10 20.6
2019-Mar-24 06:05 028 1 gusting 13 20.6
2019-Mar-24 05:55 272 2 gusting 12 18.9
2019-Mar-24 05:45 258 7 gusting 11 18.9
2019-Mar-24 05:35 257 6 gusting 13 19.4
2019-Mar-24 05:20 267 2 gusting 11 20.0
2019-Mar-24 05:15 267 1 gusting 12 20.6
2019-Mar-24 05:10 240 1 gusting 12 20.0
2019-Mar-24 05:05 271 5 gusting 13 20.0
2019-Mar-24 05:00 323 5 gusting 13 19.4
2019-Mar-24 04:50 304 3 gusting 9 20.0
2019-Mar-24 04:40 259 4 gusting 9 18.9
2019-Mar-24 04:25 299 3 gusting 9 18.9
2019-Mar-24 04:00 294 3 gusting 11 18.3
2019-Mar-24 03:50 296 7 gusting 11 17.8
2019-Mar-24 03:45 289 2 gusting 13 17.2
2019-Mar-24 03:40 254 3 gusting 13 16.7
2019-Mar-24 03:25 322 3 gusting 14 16.1
2019-Mar-24 03:15 241 3 gusting 12 16.1
2019-Mar-24 02:55 310 2 gusting 9 16.7
2019-Mar-24 02:45 288 3 gusting 13 17.2
2019-Mar-24 02:40 290 3 gusting 11 17.2
2019-Mar-24 02:35 294 1 gusting 8 17.2
2019-Mar-24 02:20 334 6 gusting 13 17.8
2019-Mar-24 02:15 326 4 gusting 6 17.8
2019-Mar-24 02:05 247 3 gusting 9 15.6
2019-Mar-24 01:50 293 2 gusting 9 15.6
2019-Mar-24 01:45 282 1 gusting 9 15.0
2019-Mar-24 01:40 283 3 gusting 9 15.0
2019-Mar-24 01:35 254 4 gusting 16 15.6
2019-Mar-24 01:20 270 2 gusting 9 16.1
2019-Mar-24 01:10 230 2 gusting 9 14.4
2019-Mar-24 01:05 231 5 gusting 9 14.4
2019-Mar-24 01:00 005 2 gusting 9 14.4
2019-Mar-24 00:50 069 0 gusting 12 12.8
2019-Mar-24 00:45 295 2 gusting 12 12.2
2019-Mar-24 00:30 111 6 gusting 9 11.7
2019-Mar-24 00:15 345 1 gusting 8 10.6
2019-Mar-24 00:10 288 1 gusting 7 10.6
2019-Mar-24 00:05 225 1 gusting 7 10.6
2019-Mar-24 00:00 300 1 gusting 8 10.0
2019-Mar-23 23:55 297 1 gusting 8 10.0
2019-Mar-23 23:45 262 2 gusting 6 10.0
2019-Mar-23 23:40 235 1 gusting 6 9.4
2019-Mar-23 23:35 210 1 gusting 11 9.4
2019-Mar-23 23:30 236 1 gusting 11 8.9
2019-Mar-23 23:25 272 1 gusting 6 8.9
2019-Mar-23 23:20 251 1 gusting 6 8.3
2019-Mar-23 23:10 336 2 gusting 7 7.8
2019-Mar-23 23:05 266 1 gusting 6 7.8
2019-Mar-23 22:35 276 1 gusting 7 6.1
2019-Mar-23 22:30 270 1 gusting 7 5.6
2019-Mar-23 22:25 275 4 gusting 7 5.6
2019-Mar-23 22:20 268 5 gusting 6 5.6
2019-Mar-23 22:15 262 0 gusting 9 5.6
2019-Mar-23 22:10 260 1 gusting 9 5.6
2019-Mar-23 21:55 271 1 gusting 4 5.0
2019-Mar-23 21:50 257 1 gusting 3 4.4
2019-Mar-23 21:45 247 4.4
2019-Mar-23 21:20 213 0 gusting 1 3.3
2019-Mar-23 21:15 124 3.3
2019-Mar-23 21:05 260 1 gusting 3 3.9
2019-Mar-23 20:55 270 0 gusting 3 3.9
2019-Mar-23 20:50 224 1 gusting 3 3.9
2019-Mar-23 20:30 252 0 gusting 4 3.9
2019-Mar-23 20:25 220 1 gusting 4 3.9
2019-Mar-23 20:20 168 1 gusting 3 3.3
2019-Mar-23 20:15 248 1 gusting 3 3.3
2019-Mar-23 20:10 260 1 gusting 1 3.3
2019-Mar-23 20:00 306 3.3
2019-Mar-23 19:20 136 1 gusting 3 3.9
2019-Mar-23 19:15 145 0 gusting 4 3.9
2019-Mar-23 19:10 178 1 gusting 6 3.9
2019-Mar-23 19:05 208 1 gusting 6 3.9
2019-Mar-23 19:00 230 0 gusting 4 3.9
2019-Mar-23 18:55 217 1 gusting 3 3.9
2019-Mar-23 18:40 267 3.9
2019-Mar-23 18:15 095 1 gusting 5 3.9
2019-Mar-23 18:05 016 1 gusting 6 3.9
2019-Mar-23 18:00 020 0 gusting 3 3.9
2019-Mar-23 17:45 221 0 gusting 3 3.9
2019-Mar-23 17:35 167 2 gusting 3 3.9
2019-Mar-23 17:25 213 0 gusting 6 3.9
2019-Mar-23 17:15 257 1 gusting 6 3.9
2019-Mar-23 17:05 258 2 gusting 6 3.9
2019-Mar-23 17:00 247 3 gusting 6 3.9
2019-Mar-23 16:35 188 1 gusting 6 4.4
2019-Mar-23 16:30 194 1 gusting 6 4.4
2019-Mar-23 16:25 251 3 gusting 6 4.4
2019-Mar-23 16:20 245 1 gusting 6 4.4
2019-Mar-23 16:10 284 3 gusting 6 5.0
2019-Mar-23 16:05 262 1 gusting 6 5.0
2019-Mar-23 16:00 276 2 gusting 13 5.0
2019-Mar-23 15:55 248 2 gusting 13 5.0
2019-Mar-23 15:50 220 1 gusting 6 5.0
2019-Mar-23 15:40 005 2 gusting 6 5.0
2019-Mar-23 15:30 289 1 gusting 8 5.0
2019-Mar-23 15:25 299 1 gusting 8 5.0
2019-Mar-23 15:20 274 1 gusting 8 5.0
2019-Mar-23 15:05 247 1 gusting 6 5.0
2019-Mar-23 15:00 270 3 gusting 6 5.6
2019-Mar-23 14:55 296 3 gusting 6 5.6
2019-Mar-23 14:50 200 1 gusting 6 5.6
2019-Mar-23 14:30 297 1 gusting 8 5.6
2019-Mar-23 14:25 262 1 gusting 6 5.6
2019-Mar-23 14:20 217 3 gusting 6 5.6
2019-Mar-23 14:00 294 2 gusting 7 6.1
2019-Mar-23 13:50 295 1 gusting 6 6.1
2019-Mar-23 13:35 274 1 gusting 6 6.1
2019-Mar-23 13:30 268 1 gusting 6 6.1
2019-Mar-23 13:20 268 2 gusting 6 6.7
2019-Mar-23 13:15 282 3 gusting 7 6.7
2019-Mar-23 13:05 171 4 gusting 6 6.7
2019-Mar-23 12:50 272 2 gusting 6 6.7
2019-Mar-23 12:40 339 1 gusting 6 7.2
2019-Mar-23 12:20 319 3 gusting 9 7.2
2019-Mar-23 12:15 106 2 gusting 9 7.2
2019-Mar-23 12:00 220 3 gusting 9 7.2
2019-Mar-23 11:50 325 2 gusting 10 7.2
2019-Mar-23 11:45 312 1 gusting 10 7.8
2019-Mar-23 11:40 225 3 gusting 7 7.8
2019-Mar-23 11:35 067 2 gusting 6 7.8
2019-Mar-23 11:30 303 3 gusting 6 7.8
2019-Mar-23 11:25 247 3 gusting 6 7.8
2019-Mar-23 11:15 243 2 gusting 6 7.8
2019-Mar-23 11:05 285 1 gusting 6 7.8
2019-Mar-23 10:55 259 1 gusting 6 8.3
2019-Mar-23 10:45 277 2 gusting 6 8.3
2019-Mar-23 10:30 267 3 gusting 8 8.9
2019-Mar-23 10:25 258 1 gusting 8 8.9
2019-Mar-23 10:15 289 3 gusting 9 8.9
2019-Mar-23 10:05 276 1 gusting 11 8.9
2019-Mar-23 09:45 272 3 gusting 8 9.4
2019-Mar-23 09:40 281 3 gusting 8 10.0
2019-Mar-23 09:05 288 2 gusting 9 11.7